804  
ASUS44 KSHV 202110  
RWRSHV  
 
WEATHER ROUNDUP FOR THE FOUR STATE AREA  
NATIONAL WEATHER SERVICE SHREVEPORT LA  
400 PM CDT MON AUG 20 2018  
 
NOTE: "FAIR" INDICATES FEW OR NO CLOUDS BELOW 12000 FEET  
WITH NO SIGNIFICANT WEATHER AND/OR S TO VISIBILITY
.  
 
!LAZ001-LAZ014-TXZ097-202200  
SHREVEPORT...MONROE...TEXARKANA RADIOS  
 
CITY SKY/WX TMP DP RH WIND PRES REMARKS
 
SHREVEPORT N/A 100 70 37 W14G20 29.88F HX 107  
MONROE PTSUNNY 95 74 50 SW14G22 29.88F HX 105  
NATCHITOCHES N/A 95 73 48 SW7 29.92F HX 104  
TEXARKANA MOSUNNY 93 71 48 W14G24 29.88F HX 100  

 
 
!LAZ001-LAZ014-TXZ097-202200  
OTHER LOCATIONS...  
 
CITY SKY/WX TMP DP RH WIND PRES REMARKS
 
DOWNTOWN SHV N/A 98 74 45 W12 29.88F HX 109  
BOSSIER CITY N/A 97 71 43 W14G23 29.87F HX 105  
RUSTON N/A 95 69 42 SW10G17 29.92F HX 100  
LITTLE ROCK MOSUNNY 90 75 61 SW16G29 29.80F HX 100  
EL DORADO TSTM 82 73 74 SW13G37 29.88S  
JACKSON PTSUNNY 92 72 51 SW8 29.95S HX 99  
NEW ORLEANS PTSUNNY 85 77 77 SW9 30.02R  
HOUSTON N/A 95 76 53 S6 29.93F HX 108  
LUFKIN MOSUNNY 96 73 47 SW7 29.93F HX 105  
TYLER MOSUNNY 97 69 40 W15 29.93F HX 103  
DAL FT WORTH MOSUNNY 93 62 35 NW12 29.95F  

 
 
!TXZ136-TXZ165-202200  
TYLER...LUFKIN RADIOS  
 
CITY SKY/WX TMP DP RH WIND PRES REMARKS
 
TYLER MOSUNNY 97 69 40 W15 29.93F HX 103  
GILMER N/A N/A N/A N/A MISG N/A  
LONGVIEW PTSUNNY 98 73 44 W16 29.90F HX 108  
LUFKIN MOSUNNY 96 73 47 SW7 29.93F HX 105  

 
 
!TXZ136-TXZ165-202200  
OTHER LOCATIONS...  
 
CITY SKY/WX TMP DP RH WIND PRES REMARKS
 
NACOGDOCHES LGT RAIN 95 73 48 NW7 N/A HX 104  
BEAUMONT N/A 87 72 60 S13 29.96F  
HOUSTON N/A 95 76 53 S6 29.93F HX 108  
COLLEGE STN MOSUNNY 99 67 35 MISG 29.93F HX 103  
AUSTIN MOSUNNY 100 66 32 VRB5 29.94F HX 104  
DAL FT WORTH MOSUNNY 93 62 35 NW12 29.95F  
TEXARKANA MOSUNNY 93 71 48 W14G24 29.88F HX 100  
SHREVEPORT N/A 100 70 37 W14G20 29.88F HX 107  
FORT POLK N/A 95 69 42 W13G20 29.92F HX 101  
LAKE CHARLES N/A 94 73 50 W18 29.96F HX 103  

 
 
 
CLICK HERE TO GO TO PREVIOUS BULLETINS.

The Nexlab LA Page
The Nexlab TX Page
The Nexlab AR Page
The Nexlab OK Page Main Text Page